GEFSCGP_500_meanwind_024.txt.gz
Wind_Speed
35 34 31 32 34 34 33 33 32 31 33 34 33 31 30 30 30 31 32 32 32 32 32 32 33 34 35 35 36 37 38 38 39 40 41 42 42 42 43 43 44 45 46 47
37 35 34 36 36 37 37 37 36 35 35 35 34 33 31 30 30 31 31 32 32 32 32 33 34 35 37 38 39 40 41 42 43 44 45 47 48 48 49 49 49 50 50 51
39 38 37 38 39 40 39 38 37 37 36 35 36 35 31 31 32 33 33 33 33 34 34 35 36 38 39 41 42 43 44 46 47 48 49 51 52 53 54 54 54 54 55 55
42 41 41 41 40 40 40 37 37 37 37 37 37 38 34 33 34 35 35 35 36 36 37 38 40 41 43 45 46 48 49 50 51 51 52 54 56 57 58 58 58 59 59 59
42 42 41 41 39 39 39 37 37 38 39 40 39 40 39 37 36 36 37 38 39 39 41 42 44 46 47 49 51 52 54 55 55 56 57 58 59 60 62 62 62 62 63 63
42 41 40 39 38 39 39 38 39 40 41 43 39 41 43 42 41 40 40 41 41 42 44 46 48 50 52 54 55 56 58 59 59 60 60 61 62 63 64 65 66 66 67 67
41 40 39 38 38 39 39 39 41 42 44 45 43 45 46 46 45 44 44 44 45 46 48 50 53 55 57 58 59 61 62 63 63 64 64 64 64 65 66 67 68 69 70 71
40 39 39 39 39 40 40 41 42 44 47 48 48 50 49 49 48 46 46 47 48 49 51 54 57 59 61 62 63 64 65 66 66 67 67 66 66 67 68 69 70 71 72 73
41 41 40 40 40 42 43 43 43 46 49 51 52 52 52 52 50 49 49 50 51 52 55 58 60 62 63 64 65 66 67 67 68 68 68 68 68 68 69 70 71 73 74 76
43 44 43 43 44 44 44 45 46 48 51 54 55 55 56 55 53 52 52 53 54 56 58 61 63 64 66 67 68 69 69 69 69 69 69 69 69 70 71 72 74 75 77 79
44 45 46 46 46 45 46 48 49 50 53 55 58 59 60 58 56 56 55 55 57 59 61 63 65 66 68 69 70 70 70 70 70 69 70 70 71 72 74 75 77 79 82 84
46 48 50 50 50 50 50 49 49 51 53 56 61 63 61 58 56 56 56 58 61 62 64 66 67 68 69 69 70 71 71 71 71 71 72 72 74 75 77 79 81 83 85 87
49 52 53 55 55 53 52 51 51 52 56 60 62 63 59 56 56 57 59 61 63 65 67 68 69 70 70 70 70 70 71 71 72 73 74 75 77 78 80 82 84 85 87 88
55 57 58 58 56 56 57 57 56 58 61 62 62 59 56 57 57 59 62 65 67 68 69 70 70 70 69 69 69 70 71 72 73 75 76 77 79 81 82 84 85 86 87 88
60 61 61 60 59 60 60 60 61 62 61 61 60 58 56 58 60 62 65 67 68 69 70 70 69 69 69 69 69 70 71 73 75 77 78 79 80 82 83 84 85 86 86 84
61 63 62 62 60 59 61 64 64 62 61 61 61 61 58 60 63 65 67 68 69 69 69 69 68 67 68 69 70 72 73 75 77 78 79 80 81 83 83 83 83 80 77 73
62 62 61 61 60 60 67 65 63 63 62 62 63 62 61 64 65 67 68 69 69 69 68 67 67 67 68 70 72 73 74 76 77 78 80 81 82 81 80 77 74 70 67 64
62 60 60 61 61 66 66 64 65 64 62 63 64 63 64 67 69 69 69 69 69 68 67 66 67 69 70 72 73 74 76 77 78 79 80 80 78 75 72 69 66 64 62 62
59 59 61 62 65 68 66 67 66 66 66 65 65 65 67 69 70 69 68 68 68 67 68 69 70 71 72 73 75 76 78 78 79 78 77 74 71 67 65 63 62 62 62 63
59 60 63 65 68 71 69 68 67 68 71 67 67 68 69 69 69 67 68 68 68 68 69 70 71 72 73 75 77 78 78 78 76 73 69 66 64 62 62 61 62 62 63 64
62 64 65 67 70 73 72 70 68 69 69 68 69 68 68 67 66 66 67 67 67 68 70 71 73 74 75 76 77 77 75 72 68 65 62 61 61 60 60 61 62 62 63 64
66 67 69 69 71 72 67 66 66 68 69 67 66 66 66 65 65 66 66 67 69 71 72 74 75 76 76 75 73 71 67 64 61 59 59 59 59 59 59 60 61 63 64 65
69 69 68 68 69 67 66 64 64 65 66 66 65 65 64 65 65 67 68 70 72 73 74 75 76 75 72 69 66 63 60 59 58 58 58 58 59 59 60 61 62 64 65 65
67 65 65 65 63 62 62 62 64 65 65 64 64 64 65 66 68 69 70 71 72 73 73 72 70 67 63 60 58 57 57 56 57 57 58 59 60 60 61 62 63 63 63 64
61 61 61 59 56 58 60 62 63 65 65 64 65 66 68 69 69 70 70 70 69 67 65 63 60 57 55 54 54 54 55 56 57 58 59 60 60 61 61 61 62 62 62 62
56 55 55 55 56 60 62 63 64 65 64 65 66 67 68 68 68 67 65 63 60 58 56 54 53 52 51 51 52 53 54 55 57 58 59 60 60 60 60 60 59 59 58 58

GEFSCGP_500_meanwind_030.txt.gz
Wind_Speed
36 35 31 32 35 34 30 28 27 28 30 30 29 28 28 28 27 28 28 28 27 26 26 25 24 24 24 24 25 25 27 28 30 32 33 35 37 39 41 43 45 47 49 51
37 34 33 35 34 33 31 30 29 31 33 33 32 31 29 29 29 29 29 28 28 27 27 27 26 26 26 27 28 30 31 33 34 36 38 40 41 43 45 47 49 51 53 55
37 35 34 34 33 33 33 32 33 35 35 35 35 33 30 30 30 29 29 29 29 29 28 28 28 28 29 31 32 34 35 37 39 41 43 44 46 48 50 52 54 56 58 59
38 35 34 35 34 34 35 35 37 37 38 38 37 37 29 29 30 30 30 30 30 30 29 29 30 31 33 34 36 38 40 42 44 46 47 49 51 53 54 56 59 60 62 64
37 35 36 36 35 37 38 38 39 39 40 41 38 39 33 29 30 31 31 31 31 31 31 32 33 35 36 38 40 42 44 46 48 50 52 54 55 57 59 61 63 65 66 67
38 37 38 38 38 40 41 41 41 42 43 44 38 39 39 31 30 31 31 31 32 32 33 34 36 38 40 42 44 46 48 50 52 54 56 58 60 61 63 64 66 67 69 70
39 41 41 42 43 43 43 44 45 45 45 44 40 41 40 35 32 31 31 32 33 34 35 37 39 41 43 46 48 50 52 54 56 58 59 61 62 64 65 67 68 69 71 72
46 47 46 47 46 47 46 46 46 46 46 45 43 43 40 37 34 33 33 34 34 36 38 40 43 45 47 50 52 54 56 57 59 60 62 64 65 67 68 70 71 72 73 74
50 52 51 50 49 48 48 48 45 46 47 47 46 43 40 37 36 37 37 36 37 39 41 44 47 50 52 54 55 57 58 60 61 63 65 66 68 70 72 73 74 75 75 74
55 56 55 53 51 50 49 47 46 47 48 48 47 44 41 39 40 40 40 39 41 43 46 49 52 54 55 57 58 59 61 62 64 66 67 69 71 73 74 75 76 75 75 74
57 57 56 54 51 47 47 47 47 48 49 49 47 45 44 44 44 43 43 43 45 48 51 53 55 57 58 58 60 61 63 65 67 68 70 72 73 75 76 76 76 75 75 74
54 55 56 53 50 48 49 49 48 49 48 47 47 49 49 48 47 46 46 48 51 53 55 57 58 58 59 60 62 64 66 68 70 72 73 75 76 77 77 77 76 75 75 75
49 50 51 52 51 49 48 46 46 47 48 51 51 52 51 50 49 49 51 53 55 57 58 59 60 60 61 63 65 67 69 71 73 75 76 77 77 78 78 77 76 75 76 76
48 50 50 50 48 46 46 47 47 50 53 54 52 52 52 53 54 55 57 58 60 60 61 61 61 62 64 65 67 69 71 73 75 76 77 78 78 78 77 76 76 77 78 79
51 51 50 48 49 51 52 53 53 56 56 57 55 55 55 55 56 59 61 62 62 62 62 62 63 64 66 68 70 72 74 75 77 78 78 77 77 77 76 77 78 79 80 80
53 53 53 54 54 56 58 58 60 61 60 60 58 58 56 56 59 61 61 63 63 63 63 64 64 66 68 70 72 74 75 77 77 77 76 76 76 76 77 78 79 80 81 81
57 57 57 59 59 62 64 62 64 63 62 61 61 58 58 60 61 62 63 64 63 63 64 65 66 68 70 72 73 74 75 76 75 74 74 74 75 77 78 79 80 80 80 80
60 60 61 63 65 70 67 65 65 65 63 62 62 61 61 61 62 63 63 63 63 64 65 67 68 69 71 72 73 73 73 73 72 72 73 74 76 77 79 79 79 78 77 75
62 62 64 67 70 73 71 70 68 65 64 63 63 61 61 63 64 64 63 64 65 66 67 68 69 71 71 71 71 70 70 70 71 72 73 75 76 77 77 76 75 73 70 67
66 67 68 71 73 75 72 70 68 68 68 64 62 62 64 65 65 64 65 66 66 67 68 69 70 70 69 69 68 68 68 69 71 72 74 74 74 73 72 71 68 65 62 61
67 68 70 72 73 74 71 70 68 68 67 65 65 65 65 65 66 66 66 67 68 68 68 68 68 67 67 67 67 67 69 70 71 72 71 70 69 68 67 64 61 59 59 59
65 65 67 68 69 69 66 65 65 65 66 66 66 67 67 66 67 67 68 68 67 66 66 66 66 66 66 67 68 69 69 68 68 67 66 65 64 63 61 59 57 57 57 57
61 62 62 63 64 63 63 63 64 65 65 66 67 67 67 67 68 68 68 66 65 65 65 65 65 66 67 67 67 66 65 64 63 63 63 62 60 59 57 56 56 56 56 57
58 58 59 61 61 62 62 63 65 66 66 66 66 66 67 67 67 66 64 63 63 63 64 65 65 65 65 65 64 62 61 61 61 60 59 58 57 56 56 55 56 56 57 58
57 58 59 61 62 63 65 66 67 67 67 67 67 67 66 64 63 61 61 61 62 63 64 65 64 63 61 61 60 59 59 59 59 58 57 56 56 56 56 56 56 57 58 60
57 58 59 62 64 66 67 67 67 66 66 65 65 63 62 60 59 59 60 61 63 63 63 62 61 59 58 57 57 58 58 57 57 56 56 56 56 57 57 58 58 59 61 62

GEFSCGP_500_meanwind_036.txt.gz
Wind_Speed
37 37 34 32 35 36 37 36 33 33 35 33 34 33 32 29 29 28 27 27 27 27 27 28 28 28 28 28 27 28 28 27 27 27 27 28 28 29 30 32 34 36 38 40
41 39 35 37 38 38 38 37 34 35 38 37 37 36 34 33 30 31 31 31 31 30 30 30 30 29 30 30 29 29 29 29 29 29 30 30 31 32 34 36 38 40 42 44
44 42 39 40 40 40 38 38 36 37 41 40 40 39 35 34 33 32 33 35 34 33 33 32 31 31 31 31 32 31 31 31 31 31 32 32 34 35 37 39 41 43 46 48
47 44 42 40 40 39 40 39 38 39 42 43 42 43 34 34 35 33 34 38 38 35 34 34 33 33 33 34 34 33 33 33 33 34 35 36 37 39 41 43 45 47 49 51
47 45 44 42 40 40 41 39 39 40 43 46 43 45 38 34 35 32 34 39 40 37 36 35 35 35 35 35 35 35 35 35 36 37 38 39 41 43 45 47 49 50 52 54
48 48 45 42 39 39 41 40 41 43 45 49 41 45 46 37 35 34 35 39 40 39 38 37 37 37 37 37 37 37 37 37 38 39 40 42 44 46 48 50 52 54 55 57
48 48 45 41 39 40 40 41 44 46 48 49 45 48 48 42 38 36 37 38 40 40 39 39 39 39 39 39 38 38 38 39 40 42 44 46 47 49 52 54 55 57 58 61
46 45 43 40 39 40 41 43 45 47 50 51 51 51 47 44 41 38 37 37 38 39 40 39 39 39 39 39 39 40 40 41 43 45 47 49 51 53 55 57 58 60 61 63
46 46 44 42 41 43 45 45 44 49 53 55 55 54 51 47 43 39 37 37 38 39 39 39 39 39 40 40 41 41 43 44 46 49 51 53 55 56 58 60 61 62 64 66
51 53 52 49 48 48 49 48 49 52 55 58 58 56 54 51 47 43 38 35 35 36 37 38 39 40 41 42 43 44 45 48 50 52 54 56 57 59 61 62 64 65 67 68
54 55 57 54 51 50 51 53 53 54 57 60 61 58 55 54 51 45 39 36 35 35 36 37 39 41 42 43 45 47 49 51 53 55 57 59 60 62 64 65 66 67 69 71
56 58 59 58 56 55 57 56 55 56 57 58 60 58 56 54 52 47 41 37 35 36 37 39 41 42 44 46 48 50 52 54 56 58 60 61 63 64 66 67 69 70 72 74
59 61 61 62 63 61 59 57 56 56 56 58 59 56 53 50 48 44 40 38 38 39 40 41 43 45 47 49 51 54 55 57 59 61 63 64 65 67 68 69 71 73 74 76
63 65 65 64 62 62 61 59 57 57 59 58 56 52 49 47 45 41 40 40 41 42 43 45 47 49 51 53 55 57 59 61 62 64 65 66 67 69 70 72 73 75 76 79
63 64 63 62 61 62 64 63 61 61 60 59 55 52 47 46 45 44 44 43 44 45 48 50 52 53 55 56 58 60 62 63 65 66 67 68 69 70 72 73 75 77 78 80
61 61 60 61 60 61 62 63 65 64 61 58 56 53 45 44 47 48 47 46 48 50 53 55 56 57 59 60 62 63 64 65 67 68 68 69 71 72 73 75 77 78 79 81
60 60 59 59 57 59 63 60 59 60 57 54 55 50 45 47 49 49 49 51 52 54 56 58 59 61 63 64 65 66 66 67 68 68 69 70 71 73 75 76 77 78 79 80
60 59 59 58 59 65 60 54 55 57 56 55 54 50 49 50 51 52 53 54 55 57 59 61 63 64 65 66 67 67 68 68 68 68 69 70 72 74 75 76 77 78 79 80
60 59 60 61 64 66 59 57 57 58 58 55 57 56 56 55 56 57 57 57 58 60 62 63 65 66 66 67 67 68 68 68 68 68 69 71 73 74 75 75 76 78 79 78
62 62 63 65 69 70 60 58 59 61 62 55 57 57 58 58 60 58 58 59 61 62 62 63 65 65 66 67 67 67 67 66 67 68 70 72 72 73 74 75 76 77 77 76
64 64 66 67 70 70 62 61 63 65 61 60 60 60 59 60 60 59 60 61 61 61 62 63 64 65 65 65 65 65 65 65 67 69 70 70 71 73 74 75 76 76 75 74
67 67 67 67 69 68 63 63 64 64 63 63 62 61 61 61 61 61 61 61 61 60 61 62 62 63 63 63 64 64 65 66 68 69 69 70 71 73 74 74 74 73 72 71
68 68 68 68 69 66 65 64 65 64 64 64 63 63 63 62 62 61 61 60 60 60 60 61 62 62 62 63 63 64 66 67 68 68 69 70 72 73 73 73 72 70 69 69
64 64 65 66 66 64 63 63 63 63 63 63 62 62 62 62 61 61 60 59 60 60 60 61 62 62 63 63 65 65 66 67 68 69 70 71 72 72 72 71 69 68 68 67
60 61 61 61 61 60 60 59 58 58 58 59 60 60 60 60 59 59 59 59 59 60 61 62 62 63 63 65 66 66 67 68 69 70 71 71 71 70 69 68 67 67 67 67
56 56 56 56 56 56 55 55 55 54 55 55 56 56 57 57 57 58 59 59 60 61 62 62 63 64 65 66 66 67 67 68 69 70 70 70 69 68 67 67 67 67 67 67

GEFSCGP_500_meanwind_042.txt.gz
Wind_Speed
35 33 29 29 30 30 29 29 28 29 31 32 33 32 32 33 31 29 28 28 28 28 29 29 29 29 28 28 28 28 29 30 30 30 31 31 31 31 31 31 32 32 32 33
38 35 34 34 32 32 32 32 32 33 35 38 37 36 34 35 33 31 30 29 29 30 31 32 33 32 32 31 31 31 31 32 33 33 33 33 33 33 33 33 34 34 34 35
42 39 37 36 35 35 34 34 35 37 39 42 43 41 36 33 33 32 31 30 30 31 33 34 35 35 35 35 34 34 34 34 34 34 34 34 35 35 35 35 36 36 37 38
45 42 40 39 38 38 37 37 38 39 43 45 46 48 36 32 32 31 30 32 32 32 34 35 37 38 38 38 37 37 36 36 36 36 36 36 36 37 37 38 38 39 40 41
47 44 43 42 40 40 40 39 40 42 46 50 49 51 43 33 30 28 30 33 34 34 35 36 37 39 40 39 39 38 38 38 37 37 37 38 38 38 39 40 41 41 42 43
49 48 46 44 42 41 41 41 43 47 51 56 50 52 49 35 29 28 29 32 34 36 36 37 38 40 41 40 40 40 39 39 39 39 39 39 40 40 41 42 43 43 44 45
52 51 49 47 45 43 42 42 46 52 55 57 51 53 48 37 32 30 29 31 34 36 37 38 38 40 41 41 41 41 40 40 40 40 41 41 41 42 43 44 44 45 46 48
56 55 52 51 48 45 45 47 50 54 57 57 55 53 44 39 33 30 31 32 33 35 38 39 40 40 41 42 41 41 40 40 41 41 42 42 43 43 44 45 46 47 49 51
59 59 57 56 53 51 52 53 50 52 57 58 55 48 43 38 35 33 33 33 34 36 37 39 41 41 42 42 41 41 41 41 42 42 43 43 44 45 46 47 48 50 52 54
56 60 61 59 59 57 55 53 51 53 56 58 55 49 43 39 38 37 36 35 35 36 37 39 41 42 42 42 42 42 42 42 43 43 44 45 46 47 48 49 50 52 55 57
53 56 59 59 58 55 53 54 54 55 57 58 56 49 45 43 41 40 39 39 39 38 38 39 40 42 43 43 43 43 43 43 44 45 46 47 48 49 50 51 53 55 57 59
50 52 56 57 56 56 57 57 56 57 57 55 56 52 49 48 45 43 42 42 42 41 40 39 40 41 42 43 43 44 44 45 46 47 48 49 50 50 51 53 56 58 59 61
50 52 53 55 57 58 57 56 55 54 54 55 57 54 53 50 47 45 45 44 44 43 42 41 40 41 42 43 45 46 46 47 48 49 49 50 51 52 54 56 58 60 61 63
53 54 54 54 53 54 53 52 51 52 56 58 58 55 54 54 51 48 46 47 47 47 45 42 41 41 42 44 46 47 48 49 49 50 51 52 53 54 56 58 60 62 64 66
55 56 53 51 50 52 54 54 54 56 59 60 58 56 53 53 51 49 49 49 49 49 48 46 44 43 44 45 46 47 49 50 51 52 53 54 55 57 59 60 62 64 66 67
55 56 54 54 51 54 56 55 57 60 60 61 61 58 51 50 50 49 49 49 51 52 51 48 46 45 45 46 47 49 50 52 53 54 55 56 57 58 60 62 65 66 67 69
58 56 56 55 52 55 57 53 54 56 56 56 59 57 52 51 49 46 47 50 52 52 50 48 46 46 47 48 50 51 53 54 56 56 57 58 59 60 62 64 66 68 69 70
65 62 60 59 58 63 57 49 51 54 54 54 54 52 51 49 46 46 48 49 49 48 48 49 49 49 49 50 52 54 55 56 57 58 59 59 60 62 64 66 68 69 70 71
70 66 64 63 64 65 58 52 53 55 56 52 53 52 50 47 49 50 45 45 47 49 50 52 52 53 53 53 54 56 57 58 59 59 60 60 62 65 67 68 69 70 71 71
70 68 67 67 67 68 61 56 57 60 59 49 52 51 49 50 55 51 46 49 51 51 51 52 53 55 55 55 56 57 58 59 59 59 60 62 65 67 68 69 70 70 70 70
67 67 68 68 69 70 62 61 62 65 57 51 53 52 51 54 56 54 55 54 54 54 54 54 55 56 56 56 57 57 58 58 59 60 63 65 67 68 69 69 69 69 70 71
62 64 64 64 66 65 60 61 62 61 58 57 56 56 56 55 55 55 56 56 56 56 56 56 56 56 57 57 57 57 57 58 60 62 64 66 68 68 68 68 69 70 71 72
62 61 60 61 62 60 59 61 61 61 60 60 59 59 58 58 57 57 57 57 57 57 57 57 57 57 57 57 57 57 57 59 61 63 65 67 68 68 68 69 70 71 72 74
64 61 60 59 58 56 56 56 57 58 58 58 59 59 59 59 58 58 58 57 57 57 58 58 57 57 57 57 57 57 58 60 62 64 65 66 67 68 69 70 71 72 74 76
65 64 62 61 59 58 56 55 54 54 54 54 55 56 57 57 57 57 57 57 57 57 57 56 56 55 55 55 55 56 58 59 61 63 64 66 67 68 70 71 72 73 75 76
66 65 63 61 58 57 56 55 55 54 54 53 53 53 53 55 55 56 56 55 55 54 54 53 53 52 52 53 54 56 58 59 61 63 65 66 68 69 70 72 73 74 76 77